Location: Monrovia
(34.7865°N, 86.7139°W)
Time: 19:54:48
(UTC+00:00)

H-2A R/B - Pass Details

Date: 14 July 2020
Orbit: 577 x 656 km, 98.5° (Epoch: 08 August)

Event Time Altitude Azimuth Distance (km) Brightness Sun altitude
Exits shadow 10:05:22 - 195° (SSW) 2,798 5.0 -7.8°
Reaches altitude 10° 10:07:31 10° 207° (SSW) 2,022 4.2 -7.4°
Maximum altitude 10:11:10 25° 263° (W) 1,272 3.2 -6.8°
Drops below altitude 10° 10:14:46 10° 319° (NW) 1,996 4.6 -6.2°
Sets 10:17:15 0° 332° (NNW) 2,891 5.6 -5.7°
